EGUB

RAF Benson

Airport
ICAO code
EGUB
Summary
ICAO Region
EUR
ICAO Territory
Location

Oxfordshire, United Kingdom,

Elevation
226 ft
Coordinates
51° 36' 59" N , 1° 5' 45" W
KCC
Airport WX
Fog
Metar
EGUB 220120Z AUTO 18011KT 9999 BKN011/// 09/08 Q0995

Description

Military airbase South East of Oxford hosting support helicopters and basic training aircraft.

Climatology

Temperate Marine climate/Oceanic climate (Köppen climate classification Cfb). Moderately cool summer and comparatively warm winter with a temperature range of only 14°C. Prevailing south-westerly winds from the Atlantic Ocean.

Runways

Designator Length Width Surface Rops
6/24 1458 30 ASP No/No
1/19 1823 46 ASP No/No

Airport map

Aerial View

SKYbrary Partners:

Safety knowledge contributed by: